Location: ?????????
(54.7630°N, 39.4991°E)
Time: 20:26:51
(UTC+00:00)

Cosmos 1980 Rocket - Pass Details

Date: 14 April 2026
Orbit: 826 x 850 km, 71.0° (Epoch: 16 May)

Event Time Altitude Azimuth Distance (km) Brightness Sun altitude
Rises 20:58:58 0° 323° (NW) 3,418 6.3 -25.4°
Reaches altitude 10° 21:01:48 10° 335° (NNW) 2,484 5.5 -25.4°
Maximum altitude 21:06:40 28° 34° (NNE) 1,548 4.0 -25.5°
Drops below altitude 10° 21:11:32 10° 93° (E) 2,482 4.6 -25.5°
Enters shadow 21:12:49 - 99° (E) 2,895 4.9 -25.6°
